This is the latest recevied weather packets stored in our database for station/object K5VW. If no packets are shown the sender has not sent any weather packets the latest 1 day(s).
| Time | Temp. | Humidity | Pressure | Rain* | Wind** | Luminosity | Snow |
|---|---|---|---|---|---|---|---|
| 1778089917 | 23.33° C | 30% | 1011.8 hPa | 0 mm | - | - | - |
| 1778089856 | 23.33° C | 30% | 1011.8 hPa | 0 mm | - | - | - |
| 1778089725 | 23.33° C | 32% | 1011.8 hPa | 0 mm | - | - | - |
| 1778089667 | 23.33° C | 32% | 1011.8 hPa | 0 mm | - | - | - |
| 1778089545 | 22.78° C | 30% | 1011.7 hPa | 0 mm | - | - | - |
| 1778089483 | 23.33° C | 30% | 1011.8 hPa | 0 mm | - | - | - |
| 1778089418 | 23.33° C | 31% | 1011.9 hPa | 0 mm | - | - | - |
| 1778089302 | 23.33° C | 33% | 1012.2 hPa | 0 mm | - | - | - |
| 1778089239 | 23.33° C | 33% | 1012.1 hPa | 0 mm | - | - | - |
| 1778088871 | 22.78° C | 33% | 1012 hPa | 0 mm | - | - | - |
| 1778088814 | 22.78° C | 33% | 1012 hPa | 0 mm | - | - | - |
| 1778088758 | 22.78° C | 34% | 1011.9 hPa | 0 mm | - | - | - |
| 1778088375 | 22.22° C | 35% | 1012 hPa | 0 mm | - | - | - |
| 1778087931 | 21.67° C | 37% | 1011.8 hPa | 0 mm | - | - | - |
| 1778087868 | 21.67° C | 37% | 1011.8 hPa | 0 mm | - | - | - |
| 1778087493 | 21.11° C | 37% | 1012 hPa | 0 mm | - | - | - |
| 1778087438 | 21.11° C | 36% | 1012 hPa | 0 mm | - | - | - |
| 1778087010 | 20.56° C | 36% | 1012 hPa | 0 mm | - | - | - |
| 1778086684 | 20.56° C | 37% | 1011.8 hPa | 0 mm | - | - | - |
| 1778086498 | 20.56° C | 40% | 1011.8 hPa | 0 mm | - | - | - |
| 1778086141 | 20° C | 42% | 1011.8 hPa | 0 mm | - | - | - |
| 1778085876 | 20° C | 43% | 1011.7 hPa | 0 mm | - | - | - |
| 1778085619 | 19.44° C | 44% | 1011.7 hPa | 0 mm | - | - | - |
| 1778085552 | 19.44° C | 43% | 1011.7 hPa | 0 mm | - | - | - |
| 1778085434 | 20° C | 44% | 1011.7 hPa | 0 mm | - | - | - |
* Rain latest hour (hover to see other rain measurements)
** Current wind speed in m/s (hover to see current wind gust speed)